カタログに戻る

FENGYUN 1C DEB

LostSSO
NORAD 38134·DEBRIS·🇨🇳 China

打ち上げ May 10, 1999 から Taiyuan Satellite Launch Center

Loading…

次のパス (今後24時間)

TLE

古いSource: Space-Track

元期: Apr 8, 2024, 06:26 UTC

1 38134U 99025EQF 24099.26833655  .00008434  00000-0  36984-2 0  9997
2 38134  98.4500 116.6379 0107439 350.5466   9.3688 14.20811544741560

AllMySatでFENGYUN 1C DEBをリアルタイム追跡

Download on the App Store